Station Historical Data
Daily Summary for August 25, 2017 Units:  Metric    English   Both
« Previous Day
Next Day »
Daily Weekly Monthly Yearly Custom
  High: Low: Average:
Temperature: 29.3 °C 18.9 °C 24 °C
Dew Point: 21.2 °C 15.8 °C 18.8 °C
Humidity: 88% 57% 74%
Wind Speed: 3.2km/h 0km/h 0.2km/h
Wind Gust: 8km/h - -
Wind- - WNW
Pressure: 1019.2 hPa 1014.4 hPa -
Precipitation: 0 mm    
Historical Graphs
 
 
Tabular Data for August 25, 2017
Time Temperature Dew Point Pressure Wind Wind Speed Wind Gust Humidity Rainfall Rate (Hourly) solar Conditions
00:00 21.1 °C 16.3 °C 1014.8 hPa Calm     74% 0 mm WeatherDisplay:10.37 W/m2 CLR
00:10 20.9 °C 16.1 °C 1014.4 hPa Calm     74% 0 mm WeatherDisplay:10.37 W/m2 CLR
00:15 20.8 °C 16.1 °C 1014.4 hPa Calm     74% 0 mm WeatherDisplay:10.37 W/m2 CLR
00:20 20.8 °C 16.2 °C 1014.4 hPa Calm     75% 0 mm WeatherDisplay:10.37 W/m2 CLR
00:25 20.7 °C 16.1 °C 1014.4 hPa Calm     75% 0 mm WeatherDisplay:10.37 W/m2 CLR
00:30 20.6 °C 15.8 °C 1014.4 hPa Calm     74% 0 mm WeatherDisplay:10.37 W/m2 CLR
00:40 20.6 °C 16.2 °C 1014.8 hPa Calm     76% 0 mm WeatherDisplay:10.37 W/m2 CLR
00:45 20.4 °C 16.1 °C 1014.8 hPa Calm     76% 0 mm WeatherDisplay:10.37 W/m2 CLR
00:50 20.4 °C 16 °C 1014.8 hPa Calm     76% 0 mm WeatherDisplay:10.37 W/m2 CLR
00:55 20.3 °C 16.2 °C 1014.8 hPa Calm     77% 0 mm WeatherDisplay:10.37 W/m2 CLR
01:00 20.3 °C 16.1 °C 1014.8 hPa Calm     77% 0 mm WeatherDisplay:10.37 W/m2 CLR
01:10 20.2 °C 16 °C 1014.8 hPa Calm     77% 0 mm WeatherDisplay:10.37 W/m2 CLR
01:15 20.1 °C 16.2 °C 1014.8 hPa Calm     78% 0 mm WeatherDisplay:10.37 W/m2 CLR
01:20 20.1 °C 16.1 °C 1014.8 hPa Calm     78% 0 mm WeatherDisplay:10.37 W/m2 CLR
01:25 20 °C 16.1 °C 1014.8 hPa Calm     78% 0 mm WeatherDisplay:10.37 W/m2 CLR
01:30 19.9 °C 16 °C 1014.8 hPa Calm     78% 0 mm WeatherDisplay:10.37 W/m2 CLR
01:35 19.9 °C 15.9 °C 1014.4 hPa Calm     78% 0 mm WeatherDisplay:10.37 W/m2 CLR
01:40 19.8 °C 16.1 °C 1014.4 hPa Calm     79% 0 mm WeatherDisplay:10.37 W/m2 CLR
01:45 19.8 °C 16.1 °C 1014.4 hPa Calm     79% 0 mm WeatherDisplay:10.37 W/m2 CLR
01:50 19.7 °C 16 °C 1014.4 hPa Calm     79% 0 mm WeatherDisplay:10.37 W/m2 CLR
01:55 19.7 °C 16.2 °C 1014.4 hPa Calm     80% 0 mm WeatherDisplay:10.37 W/m2 CLR
02:00 19.7 °C 16.1 °C 1014.4 hPa Calm     80% 0 mm WeatherDisplay:10.37 W/m2 CLR
02:10 19.5 °C 16 °C 1014.4 hPa Calm     80% 0 mm WeatherDisplay:10.37 W/m2 CLR
02:15 19.5 °C 16.2 °C 1014.4 hPa Calm     81% 0 mm WeatherDisplay:10.37 W/m2 CLR
02:20 19.4 °C 16.1 °C 1014.8 hPa Calm     81% 0 mm WeatherDisplay:10.37 W/m2 CLR
02:25 19.4 °C 16.1 °C 1014.8 hPa Calm     81% 0 mm WeatherDisplay:10.37 W/m2 CLR
02:30 19.4 °C 16.2 °C 1014.8 hPa Calm     82% 0 mm WeatherDisplay:10.37 W/m2 CLR
02:40 19.3 °C 16.2 °C 1014.8 hPa Calm     82% 0 mm WeatherDisplay:10.37 W/m2 CLR
02:45 19.3 °C 16.2 °C 1014.8 hPa Calm     82% 0 mm WeatherDisplay:10.37 W/m2 CLR
02:50 19.3 °C 16 °C 1014.8 hPa Calm     81% 0 mm WeatherDisplay:10.37 W/m2 CLR
02:55 19.3 °C 16.1 °C 1014.8 hPa Calm     82% 0 mm WeatherDisplay:10.37 W/m2 CLR
03:00 19.3 °C 16.1 °C 1014.8 hPa Calm     82% 0 mm WeatherDisplay:10.37 W/m2 CLR
03:10 19.3 °C 16.1 °C 1015.1 hPa Calm     82% 0 mm WeatherDisplay:10.37 W/m2 CLR
03:15 19.2 °C 16.1 °C 1015.1 hPa Calm     82% 0 mm WeatherDisplay:10.37 W/m2 CLR
03:20 19.2 °C 16.1 °C 1015.1 hPa Calm     82% 0 mm WeatherDisplay:10.37 W/m2 CLR
03:25 19.2 °C 16.3 °C 1015.1 hPa Calm     83% 0 mm WeatherDisplay:10.37 W/m2 CLR
03:30 19.2 °C 16.2 °C 1015.1 hPa Calm     83% 0 mm WeatherDisplay:10.37 W/m2 CLR
03:40 19.1 °C 16.1 °C 1015.1 hPa Calm     83% 0 mm WeatherDisplay:10.37 W/m2 CLR
03:45 19.1 °C 16.1 °C 1015.1 hPa Calm     83% 0 mm WeatherDisplay:10.37 W/m2 CLR
03:50 19 °C 16.2 °C 1015.1 hPa Calm     84% 0 mm WeatherDisplay:10.37 W/m2 CLR
03:55 18.9 °C 16.2 °C 1015.1 hPa Calm     84% 0 mm WeatherDisplay:10.37 W/m2 CLR
04:00 18.9 °C 16.1 °C 1015.1 hPa Calm     84% 0 mm WeatherDisplay:10.37 W/m2 CLR
04:10 18.9 °C 16.4 °C 1015.1 hPa Calm     85% 0 mm WeatherDisplay:10.37 W/m2 CLR
04:15 18.9 °C 16.4 °C 1015.1 hPa Calm     85% 0 mm WeatherDisplay:10.37 W/m2 CLR
04:20 18.9 °C 16.4 °C 1015.1 hPa Calm     85% 0 mm WeatherDisplay:10.37 W/m2 CLR
04:25 19 °C 16.6 °C 1015.1 hPa Calm     86% 0 mm WeatherDisplay:10.37 W/m2 CLR
04:30 19 °C 16.6 °C 1015.1 hPa Calm     86% 0 mm WeatherDisplay:10.37 W/m2 CLR
04:40 19.1 °C 16.7 °C 1015.1 hPa Calm     86% 0 mm WeatherDisplay:10.37 W/m2 CLR
04:45 19.1 °C 16.7 °C 1015.5 hPa Calm     86% 0 mm WeatherDisplay:10.37 W/m2 CLR
04:50 19.1 °C 16.7 °C 1015.5 hPa Calm     86% 0 mm WeatherDisplay:10.37 W/m2 CLR
04:55 19.1 °C 16.7 °C 1015.5 hPa Calm     86% 0 mm WeatherDisplay:10.37 W/m2 CLR
05:00 19.1 °C 16.7 °C 1015.5 hPa Calm     86% 0 mm WeatherDisplay:10.37 W/m2 CLR
05:05 19.1 °C 16.9 °C 1015.1 hPa Calm     87% 0 mm WeatherDisplay:10.37 W/m2 CLR
05:10 19.3 °C 17.2 °C 1015.5 hPa Calm     88% 0 mm WeatherDisplay:10.37 W/m2 CLR
05:15 19.4 °C 17.2 °C 1015.5 hPa Calm     87% 0 mm WeatherDisplay:10.37 W/m2 CLR
05:20 19.4 °C 17.2 °C 1015.5 hPa Calm     87% 0 mm WeatherDisplay:10.37 W/m2 CLR
05:25 19.5 °C 17.3 °C 1015.5 hPa Calm     87% 0 mm WeatherDisplay:10.37 W/m2 CLR
05:30 19.6 °C 17.3 °C 1015.5 hPa Calm     87% 0 mm WeatherDisplay:10.37 W/m2 CLR
05:35 19.6 °C 17.6 °C 1015.5 hPa Calm     88% 0 mm WeatherDisplay:10.37 W/m2 CLR
05:40 19.6 °C 17.6 °C 1015.5 hPa Calm     88% 0 mm WeatherDisplay:10.37 W/m2 CLR
05:45 19.7 °C 17.6 °C 1015.5 hPa Calm     88% 0 mm WeatherDisplay:10.37 W/m2 CLR
05:50 19.6 °C 17.4 °C 1015.5 hPa Calm     87% 0 mm WeatherDisplay:10.37 W/m2 CLR
05:55 19.6 °C 17.4 °C 1015.8 hPa Calm     87% 0 mm WeatherDisplay:10.37 W/m2 CLR
06:00 19.6 °C 17.3 °C 1015.8 hPa Calm     87% 0 mm WeatherDisplay:10.37 W/m2 CLR
06:05 19.5 °C 17.3 °C 1015.8 hPa Calm     87% 0 mm WeatherDisplay:10.37 W/m2 CLR
06:10 19.5 °C 17.5 °C 1015.8 hPa Calm     88% 0 mm WeatherDisplay:10.37 W/m2 CLR
06:15 19.6 °C 17.5 °C 1015.8 hPa Calm     88% 0 mm WeatherDisplay:10.37 W/m2 CLR
06:20 19.6 °C 17.6 °C 1015.8 hPa Calm     88% 0 mm WeatherDisplay:10.37 W/m2 CLR
06:25 19.6 °C 17.6 °C 1015.8 hPa Calm     88% 0 mm WeatherDisplay:10.37 W/m2 CLR
06:30 19.7 °C 17.6 °C 1016.1 hPa Calm     88% 0 mm WeatherDisplay:10.37 W/m2 CLR
06:35 19.7 °C 17.7 °C 1016.1 hPa Calm     88% 0 mm WeatherDisplay:10.37 W/m2 CLR
06:40 19.7 °C 17.6 °C 1016.1 hPa Calm     88% 0 mm WeatherDisplay:10.37 W/m2 CLR
06:45 19.7 °C 17.6 °C 1016.1 hPa Calm     88% 0 mm WeatherDisplay:10.37 W/m2 CLR
06:50 19.7 °C 17.6 °C 1016.1 hPa Calm     88% 0 mm WeatherDisplay:10.37 W/m2 CLR
06:55 19.7 °C 17.6 °C 1016.1 hPa Calm     88% 0 mm WeatherDisplay:10.37 W/m2 CLR
07:00 19.7 °C 17.7 °C 1016.5 hPa Calm     88% 0 mm WeatherDisplay:10.37 W/m2 CLR
07:05 19.7 °C 17.7 °C 1016.5 hPa Calm     88% 0 mm WeatherDisplay:10.37 W/m2 CLR
07:10 19.7 °C 17.7 °C 1016.5 hPa Calm     88% 0 mm WeatherDisplay:10.37 W/m2 CLR
07:15 19.7 °C 17.6 °C 1016.1 hPa Calm     88% 0 mm WeatherDisplay:10.37 W/m2 CLR
07:20 19.7 °C 17.6 °C 1016.5 hPa Calm     88% 0 mm WeatherDisplay:10.37 W/m2 BKN
07:25 19.7 °C 17.7 °C 1016.5 hPa Calm     88% 0 mm WeatherDisplay:10.37 W/m2 BKN
07:30 19.7 °C 17.7 °C 1016.5 hPa Calm     88% 0 mm WeatherDisplay:10.37 W/m2 BKN
07:35 19.8 °C 17.7 °C 1016.5 hPa Calm     88% 0 mm WeatherDisplay:10.37 W/m2 BKN
07:40 19.8 °C 17.8 °C 1016.5 hPa Calm     88% 0 mm WeatherDisplay:10.37 W/m2 BKN
07:45 19.8 °C 17.8 °C 1016.5 hPa Calm     88% 0 mm WeatherDisplay:10.37 W/m2 BKN
07:50 19.9 °C 17.9 °C 1016.5 hPa Calm     88% 0 mm WeatherDisplay:10.37 W/m2 BKN
07:55 20.1 °C 18 °C 1016.5 hPa Calm     88% 0 mm WeatherDisplay:10.37 W/m2 BKN
08:00 20.2 °C 18.1 °C 1016.5 hPa Calm     88% 0 mm WeatherDisplay:10.37 W/m2 BKN
08:10 20.5 °C 18.4 °C 1016.8 hPa Calm     88% 0 mm WeatherDisplay:10.37 W/m2 BKN
08:15 20.7 °C 18.4 °C 1016.8 hPa Calm     87% 0 mm WeatherDisplay:10.37 W/m2 BKN
08:20 20.9 °C 18.7 °C 1016.8 hPa Calm     87% 0 mm WeatherDisplay:10.37 W/m2 BKN
08:25 21.1 °C 18.6 °C 1016.8 hPa Calm     86% 0 mm WeatherDisplay:10.37 W/m2 BKN
08:30 21.3 °C 18.8 °C 1017.2 hPa Calm     86% 0 mm WeatherDisplay:10.37 W/m2 BKN
08:40 21.7 °C 19.1 °C 1017.2 hPa Calm     85% 0 mm WeatherDisplay:10.37 W/m2 BKN
08:45 21.9 °C 19.1 °C 1017.2 hPa Calm     84% 0 mm WeatherDisplay:10.37 W/m2 BKN
08:50 22 °C 19 °C 1017.5 hPa Calm   1.6 km/h 83% 0 mm WeatherDisplay:10.37 W/m2 BKN
08:55 22.2 °C 19.1 °C 1017.5 hPa Calm     83% 0 mm WeatherDisplay:10.37 W/m2 BKN
09:00 22.3 °C 19.2 °C 1017.5 hPa Calm     83% 0 mm WeatherDisplay:10.37 W/m2 BKN
09:05 22.3 °C 19.3 °C 1017.5 hPa Calm     83% 0 mm WeatherDisplay:10.37 W/m2 BKN
09:10 22.4 °C 19.4 °C 1017.5 hPa Calm   1.6 km/h 83% 0 mm WeatherDisplay:10.37 W/m2 BKN
09:15 22.6 °C 19.6 °C 1017.5 hPa Calm   1.6 km/h 83% 0 mm WeatherDisplay:10.37 W/m2 BKN
09:20 22.9 °C 19.6 °C 1017.5 hPa Calm   1.6 km/h 82% 0 mm WeatherDisplay:10.37 W/m2 BKN
09:25 23.1 °C 19.9 °C 1017.5 hPa Calm     82% 0 mm WeatherDisplay:10.37 W/m2 BKN
09:30 23.4 °C 19.9 °C 1017.5 hPa Calm   1.6 km/h 81% 0 mm WeatherDisplay:10.37 W/m2 BKN
09:35 23.7 °C 20 °C 1017.5 hPa Calm   1.6 km/h 80% 0 mm WeatherDisplay:10.37 W/m2 BKN
09:40 23.9 °C 19.9 °C 1017.5 hPa NW 1.6 km/h 1.6 km/h 78% 0 mm WeatherDisplay:10.37 W/m2 BKN
09:45 24.2 °C 20.1 °C 1017.5 hPa Calm   4.8 km/h 78% 0 mm WeatherDisplay:10.37 W/m2 BKN
09:50 24.4 °C 19.9 °C 1017.5 hPa Calm   3.2 km/h 76% 0 mm WeatherDisplay:10.37 W/m2 BKN
09:55 24.7 °C 20.2 °C 1017.5 hPa WNW 1.6 km/h 3.2 km/h 76% 0 mm WeatherDisplay:10.37 W/m2 BKN
10:00 24.9 °C 19.9 °C 1017.5 hPa Calm   4.8 km/h 74% 0 mm WeatherDisplay:10.37 W/m2 BKN
10:05 25.2 °C 20.2 °C 1017.5 hPa Calm   4.8 km/h 74% 0 mm WeatherDisplay:10.37 W/m2 BKN
10:10 25.5 °C 20.1 °C 1017.5 hPa Calm   3.2 km/h 72% 0 mm WeatherDisplay:10.37 W/m2 BKN
10:15 25.8 °C 20.3 °C 1017.8 hPa Calm   1.6 km/h 72% 0 mm WeatherDisplay:10.37 W/m2 BKN
10:20 25.9 °C 20.3 °C 1017.8 hPa WNW 1.6 km/h 1.6 km/h 71% 0 mm WeatherDisplay:10.37 W/m2 BKN
10:25 25.8 °C 19.9 °C 1017.8 hPa WNW 1.6 km/h 3.2 km/h 70% 0 mm WeatherDisplay:10.37 W/m2 BKN
10:30 25.8 °C 20.1 °C 1017.8 hPa Calm   4.8 km/h 71% 0 mm WeatherDisplay:10.37 W/m2 BKN
10:35 25.7 °C 20.1 °C 1017.8 hPa Calm   3.2 km/h 71% 0 mm WeatherDisplay:10.37 W/m2 BKN
10:40 25.8 °C 20.1 °C 1017.8 hPa West 1.6 km/h 1.6 km/h 71% 0 mm WeatherDisplay:10.37 W/m2 BKN
10:50 25.9 °C 20 °C 1017.8 hPa Calm   3.2 km/h 70% 0 mm WeatherDisplay:10.37 W/m2 BKN
11:10 26.2 °C 20.1 °C 1018.2 hPa Calm   3.2 km/h 69% 0 mm WeatherDisplay:10.37 W/m2 BKN
11:15 26.2 °C 20.1 °C 1018.2 hPa WNW 1.6 km/h 3.2 km/h 69% 0 mm WeatherDisplay:10.37 W/m2 BKN
11:20 26.4 °C 20.1 °C 1018.2 hPa Calm   3.2 km/h 68% 0 mm WeatherDisplay:10.37 W/m2 BKN
11:25 26.6 °C 20.2 °C 1018.2 hPa WNW 1.6 km/h 4.8 km/h 68% 0 mm WeatherDisplay:10.37 W/m2 BKN
11:30 26.7 °C 20.1 °C 1018.5 hPa WNW 1.6 km/h 3.2 km/h 67% 0 mm WeatherDisplay:10.37 W/m2 BKN
11:35 26.7 °C 20.3 °C 1018.2 hPa Calm   3.2 km/h 68% 0 mm WeatherDisplay:10.37 W/m2 BKN
11:40 26.9 °C 20.2 °C 1018.2 hPa Calm   3.2 km/h 67% 0 mm WeatherDisplay:10.37 W/m2 BKN
11:45 26.8 °C 19.9 °C 1018.2 hPa Calm   1.6 km/h 66% 0 mm WeatherDisplay:10.37 W/m2 BKN
11:50 26.7 °C 19.8 °C 1018.2 hPa WNW 1.6 km/h 3.2 km/h 66% 0 mm WeatherDisplay:10.37 W/m2 BKN
11:55 26.6 °C 20.2 °C 1018.2 hPa Calm   3.2 km/h 68% 0 mm WeatherDisplay:10.37 W/m2 BKN
12:00 26.8 °C 20.4 °C 1018.2 hPa Calm   3.2 km/h 68% 0 mm WeatherDisplay:10.37 W/m2 BKN
12:10 27.1 °C 20 °C 1018.2 hPa Calm   3.2 km/h 65% 0 mm WeatherDisplay:10.37 W/m2 BKN
12:15 27.3 °C 20.2 °C 1018.2 hPa Calm   1.6 km/h 65% 0 mm WeatherDisplay:10.37 W/m2 BKN
12:20 27.6 °C 20.6 °C 1018.2 hPa Calm   1.6 km/h 66% 0 mm WeatherDisplay:10.37 W/m2 BKN
12:30 28 °C 20.3 °C 1017.8 hPa West 1.6 km/h 3.2 km/h 63% 0 mm WeatherDisplay:10.37 W/m2 BKN
12:40 28.1 °C 20.1 °C 1017.8 hPa NW 1.6 km/h 3.2 km/h 62% 0 mm WeatherDisplay:10.37 W/m2 BKN
12:50 28.3 °C 20.8 °C 1018.2 hPa NW 1.6 km/h 1.6 km/h 64% 0 mm WeatherDisplay:10.37 W/m2 BKN
12:55 28.4 °C 20.7 °C 1018.2 hPa Calm   3.2 km/h 63% 0 mm WeatherDisplay:10.37 W/m2 BKN
13:00 28.3 °C 20.3 °C 1017.8 hPa WNW 1.6 km/h 3.2 km/h 62% 0 mm WeatherDisplay:10.37 W/m2 BKN
13:10 28.3 °C 20.3 °C 1017.8 hPa Calm   3.2 km/h 62% 0 mm WeatherDisplay:10.37 W/m2 BKN
13:20 28.1 °C 20.4 °C 1017.8 hPa Calm   1.6 km/h 63% 0 mm WeatherDisplay:10.37 W/m2 BKN
13:25 28.3 °C 20.6 °C 1017.8 hPa West 1.6 km/h 3.2 km/h 63% 0 mm WeatherDisplay:10.37 W/m2 BKN
13:30 28.3 °C 20.6 °C 1017.8 hPa ENE 1.6 km/h 3.2 km/h 63% 0 mm WeatherDisplay:10.37 W/m2 BKN
13:40 28.5 °C 20.5 °C 1017.8 hPa Calm   1.6 km/h 62% 0 mm WeatherDisplay:10.37 W/m2 BKN
13:45 28.6 °C 20.3 °C 1018.2 hPa Calm   3.2 km/h 61% 0 mm WeatherDisplay:10.37 W/m2 BKN
13:50 28.7 °C 20.7 °C 1018.2 hPa Calm   3.2 km/h 62% 0 mm WeatherDisplay:10.37 W/m2 BKN
13:55 28.8 °C 20.2 °C 1018.2 hPa Calm   3.2 km/h 60% 0 mm WeatherDisplay:10.37 W/m2 BKN
14:00 28.9 °C 20.9 °C 1018.2 hPa Calm   3.2 km/h 62% 0 mm WeatherDisplay:10.37 W/m2 BKN
14:10 29 °C 21.2 °C 1017.8 hPa Calm   1.6 km/h 63% 0 mm WeatherDisplay:10.37 W/m2 BKN
14:20 29.3 °C 20.7 °C 1017.8 hPa Calm   3.2 km/h 60% 0 mm WeatherDisplay:10.37 W/m2 BKN
14:25 29.3 °C 20.8 °C 1017.8 hPa Calm   1.6 km/h 60% 0 mm WeatherDisplay:10.37 W/m2 BKN
14:30 29.3 °C 20.2 °C 1017.5 hPa WNW 1.6 km/h 3.2 km/h 58% 0 mm WeatherDisplay:10.37 W/m2 BKN
14:35 29.2 °C 20.3 °C 1017.5 hPa Calm   3.2 km/h 59% 0 mm WeatherDisplay:10.37 W/m2 BKN
14:40 29.1 °C 20.2 °C 1017.5 hPa Calm   1.6 km/h 59% 0 mm WeatherDisplay:10.37 W/m2 BKN
14:45 29.1 °C 20.2 °C 1017.5 hPa Calm   3.2 km/h 59% 0 mm WeatherDisplay:10.37 W/m2 BKN
14:50 28.8 °C 20.8 °C 1017.5 hPa Calm   8 km/h 62% 0 mm WeatherDisplay:10.37 W/m2 BKN
14:55 28.8 °C 20.2 °C 1017.5 hPa NW 1.6 km/h 3.2 km/h 60% 0 mm WeatherDisplay:10.37 W/m2 BKN
15:00 28.6 °C 20.6 °C 1017.5 hPa Calm   1.6 km/h 62% 0 mm WeatherDisplay:10.37 W/m2 BKN
15:05 28.5 °C 20.2 °C 1017.5 hPa Calm   1.6 km/h 61% 0 mm WeatherDisplay:10.37 W/m2 BKN
15:10 28.5 °C 20 °C 1017.5 hPa NNW 3.2 km/h 4.8 km/h 60% 0 mm WeatherDisplay:10.37 W/m2 BKN
15:15 28.6 °C 20 °C 1017.5 hPa Calm   3.2 km/h 60% 0 mm WeatherDisplay:10.37 W/m2 BKN
15:20 28.5 °C 20.2 °C 1017.5 hPa Calm   3.2 km/h 61% 0 mm WeatherDisplay:10.37 W/m2 BKN
15:25 28.4 °C 20.2 °C 1017.5 hPa Calm   3.2 km/h 61% 0 mm WeatherDisplay:10.37 W/m2 BKN
15:30 28.4 °C 20.2 °C 1017.5 hPa Calm   1.6 km/h 61% 0 mm WeatherDisplay:10.37 W/m2 BKN
15:35 28.5 °C 20 °C 1017.2 hPa Calm   1.6 km/h 60% 0 mm WeatherDisplay:10.37 W/m2 BKN
15:40 28.6 °C 20.3 °C 1017.2 hPa Calm   1.6 km/h 61% 0 mm WeatherDisplay:10.37 W/m2 BKN
15:45 28.7 °C 20.4 °C 1017.2 hPa Calm   3.2 km/h 61% 0 mm WeatherDisplay:10.37 W/m2 BKN
15:50 28.9 °C 20.7 °C 1017.2 hPa Calm     61% 0 mm WeatherDisplay:10.37 W/m2 BKN
15:55 29.1 °C 20.8 °C 1017.2 hPa Calm   1.6 km/h 61% 0 mm WeatherDisplay:10.37 W/m2 BKN
16:00 29 °C 20.4 °C 1017.2 hPa Calm   3.2 km/h 60% 0 mm WeatherDisplay:10.37 W/m2 BKN
16:10 29 °C 20.4 °C 1017.2 hPa Calm   1.6 km/h 60% 0 mm WeatherDisplay:10.37 W/m2 BKN
16:15 29.1 °C 20.2 °C 1017.2 hPa Calm   1.6 km/h 59% 0 mm WeatherDisplay:10.37 W/m2 BKN
16:20 29.1 °C 20.2 °C 1016.8 hPa WNW 1.6 km/h 4.8 km/h 59% 0 mm WeatherDisplay:10.37 W/m2 OVC
16:25 28.9 °C 20.1 °C 1016.8 hPa NNW 1.6 km/h 3.2 km/h 59% 0 mm WeatherDisplay:10.37 W/m2 OVC
16:30 28.8 °C 19.7 °C 1017.2 hPa Calm   3.2 km/h 58% 0 mm WeatherDisplay:10.37 W/m2 OVC
16:35 28.7 °C 19.8 °C 1017.2 hPa Calm   1.6 km/h 59% 0 mm WeatherDisplay:10.37 W/m2 OVC
16:40 28.5 °C 19.7 °C 1017.2 hPa Calm   1.6 km/h 59% 0 mm WeatherDisplay:10.37 W/m2 OVC
16:45 28.5 °C 20 °C 1017.2 hPa Calm   1.6 km/h 60% 0 mm WeatherDisplay:10.37 W/m2 OVC
16:55 28.7 °C 19.9 °C 1016.8 hPa Calm   1.6 km/h 59% 0 mm WeatherDisplay:10.37 W/m2 OVC
17:00 28.7 °C 19.9 °C 1016.8 hPa Calm   1.6 km/h 59% 0 mm WeatherDisplay:10.37 W/m2 OVC
17:05 28.7 °C 19.7 °C 1016.8 hPa Calm   1.6 km/h 58% 0 mm WeatherDisplay:10.37 W/m2 OVC
17:10 28.7 °C 19.3 °C 1016.8 hPa Calm   1.6 km/h 57% 0 mm WeatherDisplay:10.37 W/m2 OVC
17:15 28.8 °C 19.7 °C 1016.8 hPa Calm   1.6 km/h 58% 0 mm WeatherDisplay:10.37 W/m2 OVC
17:20 28.8 °C 19.9 °C 1016.8 hPa Calm   1.6 km/h 59% 0 mm WeatherDisplay:10.37 W/m2 BKN
17:25 28.8 °C 19.4 °C 1016.8 hPa Calm   1.6 km/h 57% 0 mm WeatherDisplay:10.37 W/m2 BKN
17:30 28.9 °C 19.5 °C 1016.8 hPa Calm   1.6 km/h 57% 0 mm WeatherDisplay:10.37 W/m2 BKN
17:35 28.9 °C 19.5 °C 1016.8 hPa Calm   1.6 km/h 57% 0 mm WeatherDisplay:10.37 W/m2 BKN
17:40 28.8 °C 19.7 °C 1016.8 hPa Calm   3.2 km/h 58% 0 mm WeatherDisplay:10.37 W/m2 BKN
17:45 28.8 °C 19.9 °C 1016.8 hPa Calm     59% 0 mm WeatherDisplay:10.37 W/m2 BKN
17:50 28.8 °C 19.9 °C 1016.8 hPa Calm     59% 0 mm WeatherDisplay:10.37 W/m2 BKN
17:55 28.7 °C 19.3 °C 1016.8 hPa Calm   1.6 km/h 57% 0 mm WeatherDisplay:10.37 W/m2 BKN
18:00 28.7 °C 19.6 °C 1016.8 hPa Calm   1.6 km/h 58% 0 mm WeatherDisplay:10.37 W/m2 BKN
18:05 28.6 °C 20.1 °C 1016.8 hPa Calm   1.6 km/h 60% 0 mm WeatherDisplay:10.37 W/m2 BKN
18:10 28.5 °C 19.7 °C 1016.8 hPa Calm   1.6 km/h 59% 0 mm WeatherDisplay:10.37 W/m2 BKN
18:15 28.4 °C 19.9 °C 1016.8 hPa Calm     60% 0 mm WeatherDisplay:10.37 W/m2 BKN
18:20 28.3 °C 19.6 °C 1016.8 hPa Calm   1.6 km/h 59% 0 mm WeatherDisplay:10.37 W/m2 BKN
18:25 28.2 °C 20 °C 1017.2 hPa Calm   1.6 km/h 61% 0 mm WeatherDisplay:10.37 W/m2 BKN
18:30 28.1 °C 19.9 °C 1017.2 hPa Calm     61% 0 mm WeatherDisplay:10.37 W/m2 BKN
18:35 28 °C 19.5 °C 1017.2 hPa Calm     60% 0 mm WeatherDisplay:10.37 W/m2 BKN
18:40 27.9 °C 19.7 °C 1017.2 hPa Calm     61% 0 mm WeatherDisplay:10.37 W/m2 BKN
18:45 27.8 °C 20.1 °C 1017.2 hPa Calm     63% 0 mm WeatherDisplay:10.37 W/m2 BKN
18:50 27.6 °C 20.2 °C 1017.2 hPa Calm     64% 0 mm WeatherDisplay:10.37 W/m2 BKN
18:55 27.5 °C 20.3 °C 1017.2 hPa Calm     65% 0 mm WeatherDisplay:10.37 W/m2 BKN
19:00 27.4 °C 20.1 °C 1017.2 hPa Calm     64% 0 mm WeatherDisplay:10.37 W/m2 BKN
19:05 27.3 °C 20.2 °C 1017.2 hPa Calm     65% 0 mm WeatherDisplay:10.37 W/m2 BKN
19:10 27.2 °C 20.1 °C 1017.2 hPa Calm   1.6 km/h 65% 0 mm WeatherDisplay:10.37 W/m2 BKN
19:15 27.1 °C 19.9 °C 1017.2 hPa Calm     65% 0 mm WeatherDisplay:10.37 W/m2 BKN
19:20 27 °C 20.1 °C 1017.2 hPa Calm     66% 0 mm WeatherDisplay:10.37 W/m2 BKN
19:25 26.9 °C 20.1 °C 1017.5 hPa Calm     66% 0 mm WeatherDisplay:10.37 W/m2 BKN
19:30 26.8 °C 19.9 °C 1017.5 hPa Calm   1.6 km/h 66% 0 mm WeatherDisplay:10.37 W/m2 BKN
19:35 26.7 °C 20.1 °C 1017.5 hPa Calm     67% 0 mm WeatherDisplay:10.37 W/m2 BKN
19:40 26.6 °C 20 °C 1017.5 hPa Calm     67% 0 mm WeatherDisplay:10.37 W/m2 BKN
19:45 26.5 °C 19.9 °C 1017.5 hPa Calm   1.6 km/h 67% 0 mm WeatherDisplay:10.37 W/m2 BKN
19:50 26.3 °C 19.7 °C 1017.5 hPa Calm     67% 0 mm WeatherDisplay:10.37 W/m2 BKN
19:55 26.2 °C 19.8 °C 1017.5 hPa Calm     68% 0 mm WeatherDisplay:10.37 W/m2 BKN
20:00 26.1 °C 19.7 °C 1017.5 hPa Calm     68% 0 mm WeatherDisplay:10.37 W/m2 BKN
20:05 26 °C 19.9 °C 1017.5 hPa Calm     69% 0 mm WeatherDisplay:10.37 W/m2 BKN
20:10 25.8 °C 19.7 °C 1017.8 hPa Calm     69% 0 mm WeatherDisplay:10.37 W/m2 BKN
20:15 25.7 °C 19.8 °C 1017.8 hPa Calm     70% 0 mm WeatherDisplay:10.37 W/m2 BKN
20:20 25.6 °C 19.9 °C 1017.5 hPa Calm     71% 0 mm WeatherDisplay:10.37 W/m2 BKN
20:25 25.4 °C 19.8 °C 1017.5 hPa Calm   1.6 km/h 71% 0 mm WeatherDisplay:10.37 W/m2 BKN
20:30 25.3 °C 19.7 °C 1017.5 hPa Calm     71% 0 mm WeatherDisplay:10.37 W/m2 BKN
20:35 25.2 °C 19.8 °C 1017.5 hPa Calm     72% 0 mm WeatherDisplay:10.37 W/m2 BKN
20:40 25.1 °C 19.7 °C 1017.8 hPa Calm     72% 0 mm WeatherDisplay:10.37 W/m2 BKN
20:45 25.1 °C 19.9 °C 1017.5 hPa Calm     73% 0 mm WeatherDisplay:10.37 W/m2 BKN
20:50 25 °C 19.8 °C 1017.5 hPa Calm     73% 0 mm WeatherDisplay:10.37 W/m2 BKN
20:55 24.9 °C 19.7 °C 1017.5 hPa Calm     73% 0 mm WeatherDisplay:10.37 W/m2 BKN
21:00 24.8 °C 19.6 °C 1017.5 hPa Calm     73% 0 mm WeatherDisplay:10.37 W/m2 BKN
21:10 24.6 °C 19.7 °C 1017.8 hPa Calm   1.6 km/h 74% 0 mm WeatherDisplay:10.37 W/m2 BKN
21:15 24.5 °C 19.6 °C 1017.5 hPa Calm     74% 0 mm WeatherDisplay:10.37 W/m2 BKN
21:20 24.4 °C 19.7 °C 1017.5 hPa Calm     75% 0 mm WeatherDisplay:10.37 W/m2 BKN
21:25 24.4 °C 19.7 °C 1017.8 hPa Calm     75% 0 mm WeatherDisplay:10.37 W/m2 BKN
21:30 24.3 °C 19.6 °C 1017.8 hPa Calm     75% 0 mm WeatherDisplay:10.37 W/m2 BKN
21:35 24.3 °C 19.6 °C 1017.8 hPa Calm     75% 0 mm WeatherDisplay:10.37 W/m2 BKN
21:40 24.3 °C 19.8 °C 1017.8 hPa Calm     76% 0 mm WeatherDisplay:10.37 W/m2 BKN
21:45 24.2 °C 19.7 °C 1018.2 hPa Calm     76% 0 mm WeatherDisplay:10.37 W/m2 BKN
21:50 24.1 °C 19.6 °C 1018.2 hPa Calm     76% 0 mm WeatherDisplay:10.37 W/m2 BKN
21:55 24.1 °C 19.8 °C 1018.2 hPa Calm     77% 0 mm WeatherDisplay:10.37 W/m2 BKN
22:00 24.1 °C 19.8 °C 1018.2 hPa Calm     77% 0 mm WeatherDisplay:10.37 W/m2 BKN
22:10 23.9 °C 19.7 °C 1018.5 hPa Calm     77% 0 mm WeatherDisplay:10.37 W/m2 BKN
22:15 23.8 °C 19.8 °C 1018.5 hPa Calm     78% 0 mm WeatherDisplay:10.37 W/m2 BKN
22:20 23.8 °C 19.7 °C 1018.5 hPa Calm     78% 0 mm WeatherDisplay:10.37 W/m2 BKN
22:25 23.7 °C 19.7 °C 1018.5 hPa Calm     78% 0 mm WeatherDisplay:10.37 W/m2 BKN
22:30 23.7 °C 19.6 °C 1018.5 hPa Calm     78% 0 mm WeatherDisplay:10.37 W/m2 BKN
22:40 23.6 °C 19.8 °C 1018.8 hPa Calm     79% 0 mm WeatherDisplay:10.37 W/m2 BKN
22:45 23.6 °C 19.8 °C 1018.8 hPa Calm     79% 0 mm WeatherDisplay:10.37 W/m2 BKN
22:50 23.6 °C 19.7 °C 1018.8 hPa Calm     79% 0 mm WeatherDisplay:10.37 W/m2 BKN
22:55 23.5 °C 19.7 °C 1018.8 hPa Calm     79% 0 mm WeatherDisplay:10.37 W/m2 BKN
23:00 23.4 °C 19.6 °C 1018.8 hPa Calm     79% 0 mm WeatherDisplay:10.37 W/m2 BKN
23:05 23.3 °C 19.7 °C 1018.8 hPa Calm     80% 0 mm WeatherDisplay:10.37 W/m2 BKN
23:10 23.3 °C 19.6 °C 1018.8 hPa Calm     80% 0 mm WeatherDisplay:10.37 W/m2 BKN
23:25 23.1 °C 19.7 °C 1018.8 hPa Calm     81% 0 mm WeatherDisplay:10.37 W/m2 BKN
23:30 23.1 °C 19.6 °C 1018.8 hPa Calm     81% 0 mm WeatherDisplay:10.37 W/m2 BKN
23:35 23.1 °C 19.8 °C 1018.8 hPa Calm   1.6 km/h 82% 0 mm WeatherDisplay:10.37 W/m2 BKN
23:40 22.9 °C 19.7 °C 1018.8 hPa Calm     82% 0 mm WeatherDisplay:10.37 W/m2 BKN
23:50 22.8 °C 19.8 °C 1019.2 hPa Calm     83% 0 mm WeatherDisplay:10.37 W/m2 BKN
23:55 22.8 °C 19.8 °C 1019.2 hPa Calm     83% 0 mm WeatherDisplay:10.37 W/m2 BKN
Piedmont Bend
Compliments of Weather Underground - 4 mb